• In Kazakhstan
  • List of Countries
  • For 7 days
  • Water Temperature
  • Satellite Maps
  • Weather Map
  • News
  • Weather Widgets
  • user-avatar
    Login

    Hourly Weather Lewiston

    Today, 22 September, Friday

    Time Temperature Precipitation Wind Pressure Humidity
    00:00 +13°C° 0 mm 3 mps 758 mmHg 68%
    01:00 +13°C° 0 mm 3 mps 758 mmHg 70%
    02:00 +12°C° 0 mm 3 mps 758 mmHg 71%
    03:00 +12°C° 0 mm 3 mps 758 mmHg 73%
    04:00 +11°C° 0 mm 3 mps 758 mmHg 74%
    05:00 +11°C° 0 mm 4 mps 758 mmHg 71%
    06:00 +12°C° 0 mm 4 mps 758 mmHg 68%
    07:00 +12°C° 0 mm 4 mps 758 mmHg 66%
    08:00 +14°C° 0 mm 4 mps 758 mmHg 59%
    09:00 +17°C° 0 mm 4 mps 758 mmHg 51%
    10:00 +20°C° 0 mm 4 mps 758 mmHg 44%
    11:00 +21°C° 0 mm 4 mps 758 mmHg 42%
    12:00 +22°C° 0 mm 3 mps 757 mmHg 40%
    13:00 +25°C° 0 mm 3 mps 757 mmHg 37%
    14:00 +25°C° 0 mm 3 mps 757 mmHg 41%
    15:00 +24°C° 0 mm 2 mps 756 mmHg 44%
    16:00 +24°C° 0 mm 2 mps 756 mmHg 48%
    17:00 +21°C° 0 mm 2 mps 756 mmHg 54%
    18:00 +19°C° 0 mm 2 mps 756 mmHg 60%
    19:00 +18°C° 0 mm 1 mps 756 mmHg 65%
    20:00 +16°C° 0 mm 1 mps 756 mmHg 66%
    21:00 +16°C° 0 mm 1 mps 756 mmHg 66%
    22:00 +16°C° 0 mm 1 mps 756 mmHg 66%
    23:00 +15°C° 0 mm 1 mps 756 mmHg 66%

    Tomorrow, 23 September, Saturday

    Time Temperature Precipitation Wind Pressure Humidity
    00:00 +15°C° 0 mm 2 mps 756 mmHg 65%
    01:00 +14°C° 0 mm 2 mps 756 mmHg 65%
    02:00 +14°C° 0 mm 1 mps 756 mmHg 64%
    03:00 +14°C° 0 mm 1 mps 756 mmHg 64%
    04:00 +13°C° 0 mm 1 mps 755 mmHg 64%
    05:00 +14°C° 0 mm 1 mps 755 mmHg 63%
    06:00 +15°C° 0 mm 1 mps 756 mmHg 61%
    07:00 +16°C° 0 mm 1 mps 756 mmHg 60%
    08:00 +20°C° 0 mm 1 mps 756 mmHg 53%
    09:00 +24°C° 0 mm 1 mps 756 mmHg 46%
    10:00 +27°C° 0 mm 1 mps 756 mmHg 39%
    11:00 +29°C° 0 mm 1 mps 755 mmHg 37%
    12:00 +30°C° 0 mm 1 mps 755 mmHg 35%
    13:00 +31°C° 0 mm 1 mps 755 mmHg 33%
    14:00 +31°C° 0 mm 1 mps 754 mmHg 39%
    15:00 +30°C° 0 mm 1 mps 754 mmHg 45%
    16:00 +29°C° 0 mm 1 mps 754 mmHg 51%
    17:00 +27°C° 0 mm 1 mps 754 mmHg 58%
    18:00 +24°C° 0 mm 1 mps 755 mmHg 65%
    19:00 +21°C° 0 mm 1 mps 755 mmHg 72%
    20:00 +21°C° 0 mm 1 mps 755 mmHg 75%
    21:00 +20°C° 0 mm 1 mps 755 mmHg 77%
    22:00 +20°C° 0 mm 1 mps 755 mmHg 80%
    23:00 +20°C° 0 mm 1 mps 756 mmHg 83%

    Day after tomorrow, 24 September, Sunday

    Time Temperature Precipitation Wind Pressure Humidity
    00:00 +20°C° 0 mm 1 mps 756 mmHg 86%
    01:00 +19°C° 0 mm 1 mps 756 mmHg 89%
    02:00 +19°C° 0 mm 1 mps 756 mmHg 91%
    03:00 +19°C° 0 mm 1 mps 756 mmHg 93%
    04:00 +19°C° 0 mm 1 mps 756 mmHg 95%
    05:00 +20°C° 0 mm 1 mps 756 mmHg 92%
    06:00 +21°C° 0 mm 1 mps 756 mmHg 89%
    07:00 +22°C° 0 mm 1 mps 756 mmHg 86%
    08:00 +24°C° 0 mm 1 mps 756 mmHg 76%
    09:00 +27°C° 0 mm 1 mps 756 mmHg 67%
    10:00 +30°C° 0 mm 1 mps 756 mmHg 57%
    11:00 +31°C° 0 mm 1 mps 756 mmHg 55%
    12:00 +31°C° 0 mm 1 mps 755 mmHg 52%
    13:00 +32°C° 0 mm 2 mps 755 mmHg 49%
    14:00 +31°C° 0 mm 2 mps 754 mmHg 53%
    15:00 +31°C° 0 mm 2 mps 754 mmHg 57%
    16:00 +30°C° 0 mm 2 mps 754 mmHg 61%
    17:00 +27°C° 0 mm 2 mps 754 mmHg 69%
    18:00 +25°C° 0 mm 2 mps 754 mmHg 78%
    19:00 +21°C° 0 mm 2 mps 754 mmHg 87%
    20:00 +22°C° 0 mm 1 mps 755 mmHg 88%
    21:00 +21°C° 0 mm 1 mps 755 mmHg 90%
    22:00 +21°C° 0 mm 1 mps 755 mmHg 91%
    23:00 +21°C° 0 mm 1 mps 755 mmHg 92%

    25 September, Monday

    Time Temperature Precipitation Wind Pressure Humidity
    00:00 +21°C° 0 mm 1 mps 755 mmHg 92%
    01:00 +21°C° 0 mm 1 mps 755 mmHg 93%
    02:00 +21°C° 0 mm 1 mps 755 mmHg 93%
    03:00 +21°C° 0 mm 1 mps 755 mmHg 93%
    04:00 +21°C° 0 mm 1 mps 755 mmHg 94%
    05:00 +22°C° 0 mm 1 mps 755 mmHg 90%
    06:00 +23°C° 0 mm 1 mps 755 mmHg 87%
    07:00 +24°C° 0 mm 1 mps 756 mmHg 83%
    08:00 +26°C° 0 mm 1 mps 756 mmHg 73%
    09:00 +29°C° 0 mm 1 mps 756 mmHg 62%
    10:00 +32°C° 0 mm 1 mps 756 mmHg 51%
    11:00 +33°C° 0 mm 1 mps 755 mmHg 48%
    12:00 +35°C° 0 mm 2 mps 755 mmHg 44%
    13:00 +35°C° 0 mm 2 mps 755 mmHg 41%
    14:00 +34°C° 0 mm 2 mps 754 mmHg 45%
    15:00 +34°C° 0 mm 2 mps 754 mmHg 49%
    16:00 +32°C° 0 mm 2 mps 754 mmHg 53%
    17:00 +29°C° 0 mm 2 mps 754 mmHg 60%
    18:00 +27°C° 0 mm 1 mps 755 mmHg 68%
    19:00 +24°C° 0 mm 1 mps 755 mmHg 75%
    20:00 +24°C° 0 mm 1 mps 755 mmHg 78%
    21:00 +23°C° 0 mm 1 mps 755 mmHg 81%
    22:00 +22°C° 0 mm 1 mps 755 mmHg 84%
    23:00 +22°C° 0 mm 1 mps 756 mmHg 86%

    26 September, Tuesday

    Time Temperature Precipitation Wind Pressure Humidity
    00:00 +22°C° 0 mm 1 mps 756 mmHg 88%
    01:00 +21°C° 0 mm 1 mps 756 mmHg 91%
    02:00 +21°C° 0 mm 1 mps 756 mmHg 92%
    03:00 +21°C° 0 mm 1 mps 756 mmHg 94%
    04:00 +19°C° 0 mm 2 mps 756 mmHg 96%
    05:00 +20°C° 0 mm 2 mps 756 mmHg 94%
    06:00 +20°C° 0 mm 2 mps 756 mmHg 92%
    07:00 +21°C° 0 mm 2 mps 757 mmHg 91%
    08:00 +21°C° 0 mm 2 mps 757 mmHg 89%
    09:00 +21°C° 0 mm 2 mps 757 mmHg 86%
    10:00 +21°C° 0 mm 2 mps 757 mmHg 84%
    11:00 +21°C° 0 mm 2 mps 757 mmHg 82%
    12:00 +23°C° 0 mm 2 mps 757 mmHg 81%
    13:00 +23°C° 0 mm 2 mps 756 mmHg 79%
    14:00 +23°C° 0 mm 2 mps 756 mmHg 79%
    15:00 +23°C° 0 mm 2 mps 756 mmHg 79%
    16:00 +23°C° 0 mm 2 mps 756 mmHg 79%
    17:00 +20°C° 0 mm 2 mps 756 mmHg 85%
    18:00 +19°C° 0 mm 2 mps 756 mmHg 91%
    19:00 +17°C° 0 mm 2 mps 756 mmHg 97%
    20:00 +18°C° 0 mm 1 mps 756 mmHg 97%
    21:00 +18°C° 0 mm 1 mps 756 mmHg 96%
    22:00 +18°C° 0 mm 1 mps 756 mmHg 96%
    23:00 +18°C° 0 mm 1 mps 756 mmHg 96%

    27 September, Wednesday

    Time Temperature Precipitation Wind Pressure Humidity
    00:00 +18°C° 0 mm 1 mps 755 mmHg 96%
    01:00 +18°C° 0 mm 1 mps 755 mmHg 96%
    02:00 +18°C° 0 mm 1 mps 755 mmHg 96%
    03:00 +18°C° 0 mm 1 mps 755 mmHg 96%
    04:00 +18°C° 0 mm 1 mps 754 mmHg 97%
    05:00 +19°C° 0 mm 1 mps 754 mmHg 96%
    06:00 +19°C° 0 mm 1 mps 754 mmHg 94%
    07:00 +19°C° 0 mm 1 mps 754 mmHg 93%
    08:00 +21°C° 0 mm 1 mps 754 mmHg 85%
    09:00 +24°C° 0 mm 1 mps 753 mmHg 77%
    10:00 +26°C° 0 mm 1 mps 753 mmHg 68%
    11:00 +27°C° 0 mm 2 mps 753 mmHg 65%
    12:00 +28°C° 0 mm 2 mps 752 mmHg 62%
    13:00 +28°C° 0 mm 2 mps 752 mmHg 59%
    14:00 +28°C° 0 mm 2 mps 752 mmHg 63%
    15:00 +27°C° 0 mm 2 mps 751 mmHg 67%
    16:00 +26°C° 0 mm 2 mps 751 mmHg 71%
    17:00 +24°C° 0 mm 2 mps 751 mmHg 80%
    18:00 +22°C° 0 mm 1 mps 751 mmHg 88%
    19:00 +20°C° 0 mm 1 mps 752 mmHg 96%
    20:00 +19°C° 0 mm 1 mps 752 mmHg 97%
    21:00 +19°C° 0 mm 1 mps 752 mmHg 97%
    22:00 +16°C° 0 mm 0 mps 752 mmHg 98%
    23:00 +16°C° 0 mm 0 mps 752 mmHg 98%
    Show more